Location: Atlantic Beach
(40.5890°N, 73.7290°W)
Time: 13:44:26
(UTC+00:00)

Cosmos 2227 Rocket - Pass Details

Date: 29 October 2020
Orbit: 839 x 845 km, 71.0° (Epoch: 01 December)

Event Time Altitude Azimuth Distance (km) Brightness Sun altitude
Rises 23:41:29 0° 330° (NNW) 3,405 5.8 -20.8°
Reaches altitude 10° 23:44:01 10° 324° (NW) 2,467 5.1 -21.3°
Maximum altitude 23:49:21 45° 254° (WSW) 1,143 3.3 -22.3°
Drops below altitude 10° 23:54:41 10° 183° (S) 2,456 4.6 -23.3°
Sets 23:57:13 0° 177° (S) 3,387 5.3 -23.8°
